Barking Sands, HI

8:30 PM HST on March 28, 2017 (GMT -1000)
Barking Sands PMRF

Weather History for PHBK - November, 2013

Change the Weather History Date:

Tuesday, November 19, 2013

  Actual Average Record
Temperature  
Mean Temperature 78 °F -  
Max Temperature 84 °F 84 °F 87 °F (2014)
Min Temperature 72 °F 64 °F 62 °F (1949)
Cooling Degree Days 13    
Growing Degree Days 28 (Base 50)    
Moisture  
Dew Point 66 °F    
Average Humidity 67    
Maximum Humidity 82    
Minimum Humidity 44    
Precipitation  
Precipitation 0.00 in - - ()
Sea Level Pressure  
Sea Level Pressure 29.93 in    
Wind  
Wind Speed 6 mph (SE)    
Max Wind Speed 14 mph    
Max Gust Speed 22 mph    
Visibility 10 miles    
Events      
Averages and records for this station are not official NWS values.
T = Trace of Precipitation, MM = Missing Value Source: NWS Daily Summary

Daily Weather History Graph

Daily Weather History Graph

Search for Another Location

Airport or City:

Trip Planner

Search our weather history database for the weather conditions in past years. The results will help you decide how hot, cold, wet, or windy it might be!

Date:

Astronomy

Nov. 19, 2013 Rise Set
Actual Time 6:53 AM HST 5:55 PM HST
Civil Twilight 6:30 AM HST 6:18 PM HST
Nautical Twilight 6:03 AM HST 6:46 PM HST
Astronomical Twilight 5:36 AM HST 7:12 PM HST
Moon 7:57 PM HST (11/19) 8:40 AM HST (11/19)
Length of Visible Light 11h 48m
Length of Day
11h 01m
Waning Gibbous, 95% of the Moon is Illuminated
Nov 19
Waning Gibbous
Nov 25
Last Quarter
Dec 2
New
Dec 9
First Quarter
Dec 16
Full

Hourly Weather History & Observations

Time (HST) Temp. Heat Index Dew Point Humidity Pressure Visibility Wind Dir Wind Speed Gust Speed Precip Events Conditions
12:56 AM 75.0 °F - 64.9 °F 71% 29.96 in 10.0 mi ESE 5.8 mph - N/A   Clear
1:56 AM 73.0 °F - 64.0 °F 73% 29.94 in 10.0 mi East 3.5 mph - N/A   Clear
2:56 AM 72.0 °F - 62.1 °F 71% 29.93 in 10.0 mi Calm Calm - N/A   Clear
3:56 AM 72.0 °F - 64.0 °F 76% 29.92 in 10.0 mi SE 5.8 mph - N/A   Clear
4:56 AM 72.0 °F - 63.0 °F 73% 29.93 in 10.0 mi Calm Calm - N/A   Clear
5:56 AM 73.0 °F - 62.1 °F 68% 29.92 in 10.0 mi SE 5.8 mph - N/A   Clear
6:56 AM 73.0 °F - 60.1 °F 64% 29.93 in 10.0 mi SE 3.5 mph - N/A   Clear
7:56 AM 79.0 °F - 60.1 °F 52% 29.94 in 10.0 mi SE 6.9 mph - N/A   Clear
8:56 AM 82.0 °F 82.1 °F 59.0 °F 45% 29.94 in 10.0 mi SE 13.8 mph 20.7 mph N/A   Clear
9:56 AM 84.0 °F 84.0 °F 60.1 °F 44% 29.94 in 10.0 mi SE 11.5 mph 19.6 mph N/A   Clear
10:56 AM 84.9 °F 85.9 °F 63.0 °F 48% 29.93 in 10.0 mi SSE 12.7 mph 21.9 mph N/A   Clear
11:56 AM 82.9 °F 86.5 °F 69.1 °F 63% 29.91 in 10.0 mi SSE 13.8 mph 21.9 mph N/A   Clear
12:56 PM 82.9 °F 86.5 °F 69.1 °F 63% 29.88 in 10.0 mi SSE 11.5 mph 20.7 mph N/A   Clear
1:56 PM 82.9 °F 87.0 °F 70.0 °F 65% 29.86 in 10.0 mi SE 13.8 mph 19.6 mph N/A   Clear
2:56 PM 82.9 °F 85.4 °F 66.9 °F 58% 29.86 in 10.0 mi SE 13.8 mph 19.6 mph N/A   Clear
3:56 PM 82.0 °F 85.9 °F 70.0 °F 67% 29.86 in 10.0 mi SE 13.8 mph 18.4 mph N/A   Clear
4:56 PM 81.0 °F 84.1 °F 69.1 °F 67% 29.89 in 10.0 mi SSE 8.1 mph - N/A   Clear
5:56 PM 78.1 °F - 70.0 °F 76% 29.91 in 10.0 mi SSE 4.6 mph - N/A   Clear
6:56 PM 77.0 °F - 71.1 °F 82% 29.94 in 10.0 mi SE 4.6 mph - N/A   Clear
7:56 PM 75.9 °F - 69.1 °F 79% 29.96 in 10.0 mi East 4.6 mph - N/A   Clear
8:56 PM 75.0 °F - 68.0 °F 79% 29.96 in 10.0 mi Calm Calm - N/A   Mostly Cloudy
9:56 PM 73.9 °F - 66.9 °F 79% 29.96 in 10.0 mi SE 3.5 mph - N/A   Clear
10:56 PM 73.0 °F - 66.0 °F 79% 29.97 in 10.0 mi SE 3.5 mph - N/A   Clear
11:56 PM 75.0 °F - 66.0 °F 73% 29.96 in 10.0 mi SE 6.9 mph - N/A   Clear